Miscellaneous Local Product
Issued by NWS Hastings, NE

Home | Current Version | Previous Version | Graphics & Text | Print | Product List | Glossary On
Versions: 1 2 3 4 5 6 7 8 9 10 11 12 13 14 15 16 17 18 19 20 21 22 23 24 25 26 27 28 29 30 31 32 33 34 35 36 37 38 39 40 41 42 43 44 45 46 47 48 49 50
430
AXUS43 KGID 300402
MISGRI

GID CWA HOURLY WEATHER ROUNDUP
NATIONAL WEATHER SERVICE HASTINGS NE
1100 PM CDT SUN MAY 29 2016

NOTE: "FAIR" INDICATES FEW OR NO CLOUDS BELOW 12,000 FEET WITH NO
SIGNIFICANT WEATHER AND/OR OBSTRUCTIONS TO VISIBILITY.

...SOUTH CENTRAL NEBRASKA...

CITY           SKY/WX    TMP DP  RH WIND       PRES   REMARKS
GRAND ISLAND   CLOUDY    70  55  59 S16G28    30.03S
HASTINGS       LGT RAIN  66  59  78 S13       30.07R
KEARNEY        CLOUDY    68  55  64 S12       30.07R
ORD            TSTM      69  59  70 S10G18    30.00R
YORK           CLOUDY    66  54  63 W5        30.03R
AURORA         CLOUDY    67  57  70 SW21      30.05R
LEXINGTON      CLOUDY    67  53  59 S9        30.05F
HOLDREGE       CLOUDY    67  50  55 SW5       30.07R
HEBRON         TSTM      64  56  76 N22G31    30.11R

...NEBRASKA PANHANDLE...

CITY           SKY/WX    TMP DP  RH WIND       PRES   REMARKS
CHADRON        CLEAR     58  51  78 W3        29.97F
ALLIANCE       CLOUDY    58  51  78 S3        30.00S
SCOTTSBLUFF    CLOUDY    60  43  53 N5        30.01F
SIDNEY         CLOUDY    60  52  74 S14       30.06R

...WESTERN AND NORTH CENTRAL NEBRASKA...

CITY           SKY/WX    TMP DP  RH WIND       PRES   REMARKS
VALENTINE      CLOUDY    68  56  65 SE13G20   29.99S
AINSWORTH      CLOUDY    70  56  62 CALM      30.04R
ONEILL         CLOUDY    70  57  64 E10       30.02S
BROKEN BOW     CLOUDY    64  57  78 NE8       30.04S
IMPERIAL       CLOUDY    65  47  52 S26G37    30.04R
NORTH PLATTE   CLOUDY    63  51  65 SE10      30.05F
MCCOOK         CLOUDY    67  50  54 VRB6      30.05R

...EASTERN NEBRASKA...

CITY           SKY/WX    TMP DP  RH WIND       PRES   REMARKS
NORFOLK        CLOUDY    67  58  72 S9        30.02R
SO SIOUX CITY  CLOUDY    72  55  55 E8        30.01S
TEKAMAH          N/A    N/A N/A N/A MISG      30.00S
COLUMBUS       CLOUDY    72  50  46 SW8       30.04R
ALBION         CLOUDY    69  58  67 S5        30.03S
OMAHA EPPLEY   CLOUDY    73  61  65 SE6       30.01R
OFFUTT AFB     CLOUDY    71  64  78 SE3       30.01R
MILLARD        CLOUDY    72  63  73 CALM      30.01R
LINCOLN        CLOUDY    71  62  73 CALM      30.01R
NEBRASKA CITY  CLOUDY    72  60  66 S7        30.03R
BEATRICE       CLOUDY    72  58  62 SW15      30.01F
FALLS CITY     CLOUDY    72  63  73 S7        30.03R

...NORTHERN KANSAS...

CITY           SKY/WX    TMP DP  RH WIND       PRES   REMARKS
GOODLAND       CLOUDY    60  49  66 S12       30.06R
HILL CITY      CLOUDY    67  50  54 SE7       30.08R
NORTON         CLEAR     66  46  48 S5        30.07R
PHILLIPSBURG   CLEAR     66  54  63 S3        30.07F
SMITH CENTER   CLEAR     64  57  77 S12       30.07R
BELOIT         CLEAR     64  57  77 W7        30.05R
HAYS           CLOUDY    63  52  67 SE9       30.07R
RUSSELL        NOT AVBL
CONCORDIA      CLOUDY    66  61  84 N7        30.06R
SALINA         CLOUDY    70  61  73 SW5       30.07R
TOPEKA         CLOUDY    71  65  81 CALM      30.05R



USA.gov is the U.S. government's official web portal to all federal, state and local government web resources and services.